Home   Weather   San Jose   Past weeks

Flag for USA Past Weather in San Jose, California, USA — Yesterday and Last 2 Weeks

Now
58 °F

Clear.


Feels Like: 58 °F
Forecast: 57 / 89 °F
Wind: 3 mph from Northwest

Location: San Jose International Airport

Current Time: Jul 22, 2017 at 3:42:37 am

Latest Report: Jul 22, 2017 at 2:53 am


Visibility: 10 mi

Pressure: 29.93 "Hg

Humidity: 84%

Dew Point: 53 °F

Location of San JoseLocation

Past Weather in San Jose — Graph

°F

San Jose Temperature Yesterday

Maximum temperature yesterday: 80 °F (at 2:53 pm)
Minimum temperature yesterday: 58 °F (at 2:53 am)
Average temperature yesterday: 67 °F

High & Low Weather Summary for the Past Weeks

 TemperatureHumidityPressure
High97 °F (Jul 8, 12:53 pm)90% (Jul 9, 3:53 am)30.06 "Hg (Jul 9, 3:53 am)
Low57 °F (Jul 13, 5:53 am)10% (Jul 8, 1:53 pm)29.82 "Hg (Jul 16, 6:53 pm)
Average71 °F61%29.95 "Hg
* Reported Jul 7 1:53 am — Jul 22 1:53 am, San Jose. Weather by CustomWeather, © 2017

Note: Actual official high and low records may vary slightly from our data, if they occured in-between our weather recording intervals... More about our weather records

Advertising

San Jose Weather History for the Previous 24 Hours

Scroll right to see more
 ConditionsComfort  
Time TempWeatherWind HumidityBarometerVisibility
1:53 am
Sat, Jul 22
59 °FClear.No wind81%29.93 "Hg10 mi
12:53 am61 °FClear.No wind78%29.95 "Hg10 mi
11:53 pm
Fri, Jul 21
61 °FClear.6 mph78%29.96 "Hg10 mi
10:53 pm61 °FClear.5 mph78%29.96 "Hg10 mi
9:53 pm63 °FClear.7 mph73%29.96 "Hg10 mi
8:53 pm64 °FPassing clouds.9 mph73%29.96 "Hg10 mi
7:53 pm67 °FPassing clouds.12 mph66%29.95 "Hg10 mi
6:53 pm71 °FPassing clouds.13 mph59%29.95 "Hg10 mi
5:53 pm74 °FPassing clouds.13 mph52%29.94 "Hg10 mi
4:53 pm77 °FSunny.14 mph48%29.94 "Hg10 mi
3:53 pm79 °FSunny.13 mph44%29.95 "Hg10 mi
2:53 pm80 °FSunny.13 mph44%29.96 "Hg10 mi
1:53 pm78 °FPassing clouds.12 mph46%29.97 "Hg10 mi
12:53 pm78 °FPassing clouds.7 mph45%29.98 "Hg10 mi
11:53 am75 °FPassing clouds.8 mph43%30.00 "Hg10 mi
10:53 am74 °FPassing clouds.6 mph50%30.01 "Hg10 mi
9:53 am69 °FPassing clouds.No wind59%30.01 "Hg10 mi
8:53 am65 °FPassing clouds.No wind68%30.02 "Hg10 mi
7:53 am62 °FSunny.No wind75%30.02 "Hg10 mi
6:53 am60 °FSunny.5 mph78%30.01 "Hg10 mi
5:53 am59 °FClear.No wind78%30.00 "Hg10 mi
4:53 am59 °FClear.No wind78%30.00 "Hg10 mi
3:53 am58 °FClear.3 mph84%30.00 "Hg10 mi
Weather by CustomWeather, © 2017

See weather overviewHow to use our weather pages